Meteo pe oră la Czyzykowo

Astăzi, 15 Aprilie, Joi

Timp Temperatura Precipitaţii Vânt Presiune Umiditate
00:00 0°C° 0 mm 3 m/s 764 mmHg 81%
01:00 0°C° 0 mm 3 m/s 764 mmHg 82%
02:00 0°C° 0 mm 3 m/s 764 mmHg 82%
03:00 0°C° 0 mm 3 m/s 764 mmHg 83%
04:00 0°C° 0 mm 3 m/s 764 mmHg 83%
05:00 0°C° 0 mm 4 m/s 764 mmHg 80%
06:00 +1°C° 0 mm 4 m/s 764 mmHg 77%
07:00 +1°C° 0 mm 5 m/s 764 mmHg 74%
08:00 +2°C° 0 mm 5 m/s 764 mmHg 67%
09:00 +2°C° 0 mm 6 m/s 764 mmHg 59%
10:00 +3°C° 0 mm 6 m/s 764 mmHg 52%
11:00 +4°C° 0 mm 7 m/s 764 mmHg 50%
12:00 +4°C° 0 mm 7 m/s 763 mmHg 47%
13:00 +5°C° 0 mm 8 m/s 763 mmHg 44%
14:00 +4°C° 0 mm 7 m/s 763 mmHg 50%
15:00 +4°C° 0 mm 7 m/s 763 mmHg 55%
16:00 +4°C° 0 mm 7 m/s 763 mmHg 60%
17:00 +3°C° 0.1 mm 6 m/s 762 mmHg 66%
18:00 +2°C° 0.1 mm 6 m/s 762 mmHg 71%
19:00 +2°C° 0.1 mm 6 m/s 762 mmHg 77%
20:00 +1°C° 0.3 mm 6 m/s 762 mmHg 80%
21:00 +1°C° 0.3 mm 6 m/s 762 mmHg 84%
22:00 +1°C° 0.3 mm 6 m/s 762 mmHg 88%
23:00 +1°C° 0.1 mm 5 m/s 762 mmHg 85%

Mâine, 16 Aprilie, Vineri

Timp Temperatura Precipitaţii Vânt Presiune Umiditate
00:00 +1°C° 0.1 mm 5 m/s 762 mmHg 83%
01:00 +1°C° 0.1 mm 5 m/s 761 mmHg 81%
02:00 +1°C° 0 mm 5 m/s 761 mmHg 82%
03:00 +1°C° 0 mm 5 m/s 761 mmHg 84%
04:00 +1°C° 0 mm 4 m/s 761 mmHg 86%
05:00 +1°C° 0 mm 5 m/s 761 mmHg 85%
06:00 +1°C° 0 mm 5 m/s 761 mmHg 85%
07:00 +1°C° 0 mm 5 m/s 761 mmHg 84%
08:00 +3°C° 0 mm 5 m/s 761 mmHg 77%
09:00 +5°C° 0 mm 5 m/s 761 mmHg 69%
10:00 +5°C° 0 mm 6 m/s 761 mmHg 61%
11:00 +7°C° 0 mm 6 m/s 761 mmHg 58%
12:00 +8°C° 0 mm 6 m/s 761 mmHg 55%
13:00 +9°C° 0 mm 6 m/s 761 mmHg 51%
14:00 +8°C° 0 mm 6 m/s 761 mmHg 55%
15:00 +7°C° 0 mm 6 m/s 761 mmHg 59%
16:00 +7°C° 0 mm 6 m/s 761 mmHg 62%
17:00 +6°C° 0 mm 5 m/s 761 mmHg 69%
18:00 +5°C° 0 mm 5 m/s 761 mmHg 76%
19:00 +4°C° 0 mm 4 m/s 761 mmHg 83%
20:00 +3°C° 0.1 mm 4 m/s 761 mmHg 84%
21:00 +3°C° 0.1 mm 4 m/s 761 mmHg 85%
22:00 +3°C° 0.1 mm 4 m/s 761 mmHg 87%
23:00 +3°C° 0.2 mm 3 m/s 761 mmHg 89%

Poimâine, 17 Aprilie, Sâmbătă

Timp Temperatura Precipitaţii Vânt Presiune Umiditate
00:00 +3°C° 0.2 mm 3 m/s 760 mmHg 92%
01:00 +3°C° 0.2 mm 3 m/s 760 mmHg 95%
02:00 +3°C° 0.1 mm 3 m/s 760 mmHg 95%
03:00 +4°C° 0.1 mm 2 m/s 760 mmHg 95%
04:00 +4°C° 0.1 mm 2 m/s 760 mmHg 96%
05:00 +4°C° 0 mm 2 m/s 760 mmHg 95%
06:00 +4°C° 0 mm 2 m/s 760 mmHg 94%
07:00 +5°C° 0 mm 2 m/s 760 mmHg 94%
08:00 +5°C° 0 mm 2 m/s 760 mmHg 92%
09:00 +6°C° 0 mm 2 m/s 761 mmHg 89%
10:00 +7°C° 0 mm 2 m/s 761 mmHg 87%
11:00 +7°C° 0.2 mm 2 m/s 760 mmHg 87%
12:00 +7°C° 0.2 mm 2 m/s 760 mmHg 88%
13:00 +8°C° 0.2 mm 3 m/s 760 mmHg 88%
14:00 +7°C° 0.3 mm 3 m/s 760 mmHg 90%
15:00 +7°C° 0.3 mm 3 m/s 760 mmHg 92%
16:00 +7°C° 0.3 mm 3 m/s 760 mmHg 94%
17:00 +7°C° 0.1 mm 3 m/s 760 mmHg 95%
18:00 +7°C° 0.1 mm 3 m/s 760 mmHg 96%
19:00 +7°C° 0.1 mm 2 m/s 760 mmHg 96%
20:00 +6°C° 0 mm 2 m/s 760 mmHg 97%
21:00 +6°C° 0 mm 2 m/s 760 mmHg 97%
22:00 +6°C° 0 mm 2 m/s 760 mmHg 97%
23:00 +5°C° 0 mm 2 m/s 760 mmHg 97%

18 Aprilie, Duminică

Timp Temperatura Precipitaţii Vânt Presiune Umiditate
00:00 +5°C° 0 mm 2 m/s 760 mmHg 97%
01:00 +5°C° 0 mm 2 m/s 760 mmHg 97%
02:00 +5°C° 0 mm 2 m/s 760 mmHg 97%
03:00 +6°C° 0 mm 2 m/s 759 mmHg 97%
04:00 +6°C° 0 mm 2 m/s 759 mmHg 96%
05:00 +6°C° 0.1 mm 2 m/s 759 mmHg 95%
06:00 +7°C° 0.1 mm 2 m/s 759 mmHg 94%
07:00 +7°C° 0.1 mm 2 m/s 759 mmHg 93%
08:00 +7°C° 0.3 mm 2 m/s 759 mmHg 91%
09:00 +8°C° 0.3 mm 2 m/s 759 mmHg 90%
10:00 +8°C° 0.3 mm 2 m/s 759 mmHg 89%
11:00 +9°C° 0.1 mm 2 m/s 759 mmHg 84%
12:00 +11°C° 0.1 mm 1 m/s 759 mmHg 78%
13:00 +11°C° 0.1 mm 1 m/s 759 mmHg 73%
14:00 +12°C° 0.2 mm 1 m/s 759 mmHg 72%
15:00 +12°C° 0.2 mm 1 m/s 758 mmHg 71%
16:00 +12°C° 0.2 mm 1 m/s 758 mmHg 70%
17:00 +11°C° 0.3 mm 1 m/s 758 mmHg 75%
18:00 +10°C° 0.3 mm 1 m/s 758 mmHg 80%
19:00 +9°C° 0.3 mm 1 m/s 758 mmHg 85%
20:00 +9°C° 0.1 mm 1 m/s 758 mmHg 86%
21:00 +9°C° 0.1 mm 1 m/s 758 mmHg 87%
22:00 +8°C° 0.1 mm 1 m/s 759 mmHg 89%
23:00 +8°C° 0 mm 1 m/s 759 mmHg 89%

19 Aprilie, Luni

Timp Temperatura Precipitaţii Vânt Presiune Umiditate
00:00 +8°C° 0 mm 1 m/s 759 mmHg 90%
01:00 +7°C° 0 mm 1 m/s 758 mmHg 90%
02:00 +7°C° 0 mm 1 m/s 758 mmHg 90%
03:00 +7°C° 0 mm 1 m/s 758 mmHg 90%
04:00 +7°C° 0 mm 1 m/s 758 mmHg 91%
05:00 +7°C° 0 mm 1 m/s 758 mmHg 88%
06:00 +8°C° 0 mm 1 m/s 758 mmHg 86%
07:00 +8°C° 0 mm 2 m/s 758 mmHg 83%
08:00 +9°C° 0.1 mm 2 m/s 758 mmHg 78%
09:00 +10°C° 0.1 mm 2 m/s 758 mmHg 73%
10:00 +12°C° 0.1 mm 3 m/s 758 mmHg 69%
11:00 +12°C° 0.3 mm 3 m/s 757 mmHg 65%
12:00 +13°C° 0.3 mm 3 m/s 757 mmHg 62%
13:00 +13°C° 0.3 mm 3 m/s 757 mmHg 58%
14:00 +13°C° 0.3 mm 3 m/s 756 mmHg 58%
15:00 +13°C° 0.3 mm 3 m/s 756 mmHg 58%
16:00 +13°C° 0.3 mm 3 m/s 756 mmHg 57%
17:00 +12°C° 0.1 mm 3 m/s 756 mmHg 64%
18:00 +12°C° 0.1 mm 2 m/s 756 mmHg 71%
19:00 +10°C° 0.1 mm 2 m/s 756 mmHg 78%
20:00 +9°C° 0 mm 2 m/s 756 mmHg 81%
21:00 +9°C° 0 mm 2 m/s 755 mmHg 83%
22:00 +8°C° 0 mm 2 m/s 755 mmHg 85%
23:00 +8°C° 0 mm 2 m/s 755 mmHg 86%

20 Aprilie, Marţi

Timp Temperatura Precipitaţii Vânt Presiune Umiditate
00:00 +8°C° 0 mm 2 m/s 755 mmHg 86%
01:00 +8°C° 0 mm 2 m/s 754 mmHg 86%
02:00 +8°C° 0 mm 2 m/s 754 mmHg 87%
03:00 +7°C° 0 mm 3 m/s 754 mmHg 88%
04:00 +7°C° 0 mm 3 m/s 754 mmHg 88%
05:00 +7°C° 0 mm 3 m/s 754 mmHg 86%
06:00 +8°C° 0 mm 3 m/s 754 mmHg 84%
07:00 +7°C° 0 mm 4 m/s 753 mmHg 83%
08:00 +8°C° 0 mm 4 m/s 753 mmHg 76%
09:00 +11°C° 0 mm 4 m/s 753 mmHg 70%
10:00 +12°C° 0 mm 5 m/s 753 mmHg 64%
11:00 +13°C° 0.1 mm 5 m/s 752 mmHg 63%
12:00 +13°C° 0.1 mm 5 m/s 752 mmHg 62%
13:00 +14°C° 0.1 mm 5 m/s 752 mmHg 61%
14:00 +13°C° 0.2 mm 5 m/s 752 mmHg 63%
15:00 +13°C° 0.2 mm 5 m/s 751 mmHg 65%
16:00 +13°C° 0.2 mm 6 m/s 751 mmHg 68%
17:00 +10°C° 0.1 mm 5 m/s 751 mmHg 74%
18:00 +10°C° 0.1 mm 4 m/s 751 mmHg 80%
19:00 +8°C° 0.1 mm 4 m/s 751 mmHg 86%
20:00 +8°C° 0 mm 3 m/s 751 mmHg 89%
21:00 +7°C° 0 mm 3 m/s 751 mmHg 92%
22:00 +5°C° 0 mm 3 m/s 751 mmHg 95%
23:00 +6°C° 0 mm 2 m/s 751 mmHg 95%
Arată mai mult

Formular de consimțământ

Meteoprog și furnizorii noștri de servicii pot stoca și accesa date personale, precum cookies, identificatori de dispozitiv sau alte tehnologii similare pe dispozitivul dumneavoastră și procesa astfel de date pentru a personaliza conținutul și reclamele, dar și pentru a oferi caracteristici de social media și pentru a analiza traficul.

  • Stocarea și/sau accesarea informațiilor pe dispozitivul dumneavoastră

    Cookies, identificatori de dispozitiv sau alte informații pot fi stocate sau accesate pe dispozitiv în scopurile indicate mai sus.

  • Reclame și conținut personalizat, evaluarea reclamelor și a conținutului, informații despre audiențe și dezvoltarea produselor

    Reclamele și conținutul pot fi personalizate pe baza unui profil. Pot fi adăugate date suplimentare pentru a personaliza mai bine reclamele și conținutul. Performanța reclamelor și conținutului poate fi măsurată. Pot fi obținute informații despre utilizatorii care au văzut reclamele și conținutul. Aceste date pot fi utilizate pentru a dezvolta sau îmbunătăți experiența utilizatorilor, sistemele și software-ul.

Dând clic pe ‘Sunt de acord’, permiteți utilizarea cookie-urilor menționate, a identificatorilor de dispozitiv, balizelor web sau altor tehnologii similare. Setările pot fi modificate din browser-ul dispozitivului dumneavoastră.

În anumite scopuri, interesele legitime pot prima asupra consimțământului. Puteți citi mai multe informații în acest sens în Politica privind Confidențialitatea Datelor și Cookie.